TimeMDT,TemperatureF,Dew PointF,Humidity,Sea Level PressureIn,VisibilityMPH,Wind Direction,Wind SpeedMPH,Gust SpeedMPH,PrecipitationIn,Events,Conditions,WindDirDegrees,DateUTC
12:58 AM,53.1,30.4,42,29.80,10.0,NNE,6.9,-,N/A,,Clear,30,2013-10-11 06:58:00
1:58 AM,51.1,29.1,43,29.81,10.0,NE,8.1,-,N/A,,Clear,50,2013-10-11 07:58:00
2:58 AM,47.8,28.8,48,29.82,10.0,NNE,6.9,-,N/A,,Clear,20,2013-10-11 08:58:00
3:58 AM,46.4,28.8,50,29.82,10.0,Variable,2.3,-,N/A,,Clear,0,2013-10-11 09:58:00
4:58 AM,46.0,28.9,51,29.84,10.0,North,4.6,-,N/A,,Clear,360,2013-10-11 10:58:00
5:58 AM,43.9,29.3,57,29.86,10.0,NNE,2.3,-,N/A,,Clear,20,2013-10-11 11:58:00
6:58 AM,45.1,29.8,55,29.88,10.0,NE,2.3,-,N/A,,Clear,40,2013-10-11 12:58:00
7:58 AM,53.1,31.5,44,29.88,10.0,Calm,Calm,-,N/A,,Clear,0,2013-10-11 13:58:00
8:58 AM,55.6,32.0,41,29.89,10.0,West,5.8,-,N/A,,Clear,270,2013-10-11 14:58:00
9:58 AM,63.7,31.8,30,29.89,10.0,Calm,Calm,-,N/A,,Clear,0,2013-10-11 15:58:00
10:58 AM,66.7,33.1,29,29.89,10.0,SSW,8.1,-,N/A,,Clear,200,2013-10-11 16:58:00
11:58 AM,67.8,33.1,28,29.89,10.0,West,10.4,-,N/A,,Clear,260,2013-10-11 17:58:00
12:41 PM,69.8,32.0,25,30.01,10.0,SW,16.1,23.0,N/A,,Clear,220,2013-10-11 18:41:00
12:58 PM,71.2,33.1,25,29.86,10.0,West,9.2,19.6,N/A,,Clear,260,2013-10-11 18:58:00
1:58 PM,71.8,32.5,24,29.84,10.0,West,12.7,21.9,N/A,,Clear,270,2013-10-11 19:58:00
2:58 PM,72.1,32.0,23,29.82,10.0,SW,5.8,-,N/A,,Clear,230,2013-10-11 20:58:00
3:32 PM,73.4,28.4,19,29.95,10.0,West,13.8,16.1,N/A,,Clear,270,2013-10-11 21:32:00
3:58 PM,74.1,27.0,17,29.82,10.0,WSW,16.1,19.6,N/A,,Clear,250,2013-10-11 21:58:00
4:58 PM,73.8,28.2,19,29.82,10.0,WSW,10.4,-,N/A,,Clear,250,2013-10-11 22:58:00
5:58 PM,72.3,27.0,18,29.83,10.0,SW,4.6,-,N/A,,Clear,230,2013-10-11 23:58:00
6:58 PM,68.0,27.9,22,29.85,10.0,WSW,5.8,-,N/A,,Clear,250,2013-10-12 00:58:00
7:58 PM,63.7,27.9,26,29.86,10.0,Calm,Calm,-,N/A,,Clear,0,2013-10-12 01:58:00
8:58 PM,59.9,28.8,31,29.87,10.0,Variable,2.3,-,N/A,,Clear,0,2013-10-12 02:58:00
9:58 PM,56.8,29.8,36,29.86,10.0,SSE,6.9,-,N/A,,Clear,150,2013-10-12 03:58:00
10:58 PM,54.7,31.3,41,29.87,10.0,East,2.3,-,N/A,,Clear,100,2013-10-12 04:58:00
11:58 PM,54.0,31.8,43,29.88,10.0,Calm,Calm,-,N/A,,Clear,0,2013-10-12 05:58:00